Regional Weather Roundup
Issued by NWS Binghamton, NY

Home | Current Version | Previous Version | Text Only | Print | Product List | Glossary On
Versions: 1 2 3 4 5 6 7 8 9 10 11 12 13 14 15 16 17 18 19 20 21 22 23 24 25 26 27 28 29 30 31 32 33 34 35 36 37 38 39 40 41 42 43 44 45 46 47 48 49 50
000
ASUS41 KBGM 200510
RWRBGM
RWRBGM
BINGHAMTON REGIONAL WEATHER ROUNDUP
NATIONAL WEATHER SERVICE BINGHAMTON NY
100 AM EDT WED AUG 20 2014

Note: "fair" indicates few or no clouds below 12,000 feet with no
significant weather and/or obstructions to visibility.

* = Station(s) that does not report precipitation, such as rain,
snow, etc, also no thunder or fog.

!NYZ009-015>018-022>025-036-037-044>046-055>057-062-200600
...CENTRAL NEW YORK...

CITY           SKY/WX    TMP DP  RH WIND       PRES   REMARKS
BINGHAMTON     CLEAR     66  62  87 S3        29.95S
CORTLAND       FAIR      61  61 100 CALM      29.94S
DANSVILLE      PTCLDY    63  60  90 SE7       29.90S
ELMIRA         PTCLDY    63  63 100 CALM      29.92R FOG
ITHACA         CLEAR     66  63  90 SE5       29.93S
HAMILTON       CLEAR     61  57  88 CALM      29.93S
MONTICELLO     MOCLDY    64  55  72 E3        29.98F
NORWICH        CLEAR     61  61 100 CALM      29.94S
ONEONTA        CLEAR     63  55  77 CALM      29.97S
PENN YAN       CLEAR     68  65  90 SW7       29.90S
ROME           PTCLDY    65  55  70 E7        29.92S
SIDNEY         PTCLDY    61  61 100 CALM      29.94S FOG
SYRACUSE       PTCLDY    65  60  84 E5        29.88S
$$

!PAZ038>040-043-044-047-048-072-200600
...NORTHEAST PENNSYLVANIA...

CITY           SKY/WX    TMP DP  RH WIND       PRES   REMARKS
HAZLETON       CLOUDY    68  63  83 CALM      30.00S
SCRANTON       CLOUDY    71  61  70 CALM      29.94R
TOWANDA*       CLEAR     63  63 100 CALM      29.93S
$$
&&
KEY
WCI = WIND CHILL INDEX
VSB = VISIBILITY
HX  = HEAT INDEX
$$



USA.gov is the U.S. government's official web portal to all federal, state and local government web resources and services.